Вернуться в каталог

ARIANE 1 DEB

АктивенHEO
NORAD 25098·DEBRIS·🇫🇷 France

Запущен Dec 24, 1979 с Guiana Space Centre

Loading…

Ближайшие Пролёты (ближайшие 24 часа)

TLE

СвежийSource: Space-Track

Эпоха: Sep 14, 2026, 02:44 UTC

1 25098U 79104D   26257.11455812  .00000911  00000-0  22689-2 0  9994
2 25098  17.5138 221.0917 5351774 141.2055 273.0989  4.79412456447930

Отслеживайте ARIANE 1 DEB в реальном времени с AllMySat

Download on the App Store